Time,TemperatureF,DewpointF,PressureIn,WindDirection,WindDirectionDegrees,WindSpeedMPH,WindSpeedGustMPH,Humidity,HourlyPrecipIn,Conditions,Clouds,dailyrainin,SoftwareType,DateUTC
2015-05-05 04:00:00,62.0,-99.9,-100.00,NE,55,1.0,1.0,-999,-99.99,,,-99.99,,2015-05-05 10:00:00,
2015-05-05 04:52:00,62.0,-99.9,-100.00,NE,55,1.0,1.0,-999,-99.99,,,-99.99,,2015-05-05 10:52:00,
2015-05-05 05:00:00,60.0,-99.9,-100.00,North,-9999,0.0,3.0,-999,-99.99,,,-99.99,,2015-05-05 11:00:00,
2015-05-05 05:52:00,60.0,-99.9,-100.00,North,-9999,0.0,3.0,-999,-99.99,,,-99.99,,2015-05-05 11:52:00,
2015-05-05 06:52:00,60.0,-99.9,-100.00,NNE,23,1.0,2.0,-999,-99.99,,,-99.99,,2015-05-05 12:52:00,
2015-05-05 09:00:00,68.0,-99.9,-100.00,SSW,204,5.0,6.0,-999,-99.99,,,-99.99,,2015-05-05 15:00:00,
2015-05-05 10:00:00,68.0,-99.9,-100.00,SSW,204,5.0,5.0,-999,-99.99,,,-99.99,,2015-05-05 16:00:00,
2015-05-05 10:52:00,68.0,-99.9,-100.00,SSW,204,5.0,5.0,-999,-99.99,,,-99.99,,2015-05-05 16:52:00,
2015-05-05 11:00:00,69.0,-99.9,-100.00,SSW,200,3.0,8.0,-999,-99.99,,,-99.99,,2015-05-05 17:00:00,
2015-05-05 11:53:00,69.0,-99.9,-100.00,SSW,200,3.0,8.0,-999,-99.99,,,-99.99,,2015-05-05 17:53:00,
2015-05-05 12:00:00,71.0,-99.9,-100.00,SSW,201,1.0,8.0,-999,-99.99,,,-99.99,,2015-05-05 18:00:00,
2015-05-05 12:52:00,71.0,-99.9,-100.00,SSW,201,1.0,8.0,-999,-99.99,,,-99.99,,2015-05-05 18:52:00,
2015-05-05 15:00:00,71.0,-99.9,-100.00,SW,226,9.0,10.0,-999,-99.99,,,-99.99,,2015-05-05 21:00:00,
2015-05-05 15:52:00,71.0,-99.9,-100.00,SW,226,9.0,10.0,-999,-99.99,,,-99.99,,2015-05-05 21:52:00,
2015-05-05 16:00:00,71.0,-99.9,-100.00,SSW,212,6.0,7.0,-999,-99.99,,,-99.99,,2015-05-05 22:00:00,
2015-05-05 16:52:00,71.0,-99.9,-100.00,SSW,212,6.0,7.0,-999,-99.99,,,-99.99,,2015-05-05 22:52:00,
2015-05-05 20:00:00,71.0,-99.9,-100.00,WNW,298,4.0,8.0,-999,-99.99,,,-99.99,,2015-05-06 02:00:00,
2015-05-05 20:52:00,71.0,-99.9,-100.00,WNW,298,4.0,8.0,-999,-99.99,,,-99.99,,2015-05-06 02:52:00,
2015-05-05 21:00:00,66.0,-99.9,-100.00,NNW,339,10.0,10.0,-999,-99.99,,,-99.99,,2015-05-06 03:00:00,
2015-05-05 21:52:00,66.0,-99.9,-100.00,NNW,339,10.0,10.0,-999,-99.99,,,-99.99,,2015-05-06 03:52:00,